Location: Amsterdam
(30.7274°N, 84.4357°W)
Time: 21:14:47
(UTC+00:00)

Injun/Solrad 3 - Pass Details

Date: 27 February 2026
Orbit: 872 x 984 km, 66.8° (Epoch: 8 March)

Event Time Altitude Azimuth Distance (km) Brightness Sun altitude
Rises 16:02:23 0° 263° (W) 3,456 10.7 43.3°
Reaches altitude 10° 16:07:37 10° 302° (WNW) 2,538 9.9 44.0°
Maximum altitude 16:08:36 10° 312° (NW) 2,513 9.8 44.1°
Drops below altitude 10° 16:09:36 10° 322° (NW) 2,547 9.9 44.2°
Sets 16:14:57 0° 2° (N) 3,520 10.6 44.9°
